Hourly Weather Puerto Ayacucho

Today, 29 November, Sunday

Time Temperature Precipitation Wind Pressure Humidity
00:00 +23°C° 0 mm 0 mps 751 mmHg 95%
01:00 +23°C° 0 mm 0 mps 751 mmHg 95%
02:00 +23°C° 0 mm 0 mps 751 mmHg 95%
03:00 +23°C° 0 mm 0 mps 751 mmHg 95%
04:00 +23°C° 0 mm 0 mps 750 mmHg 95%
05:00 +25°C° 0.1 mm 1 mps 751 mmHg 95%
06:00 +26°C° 0.1 mm 1 mps 752 mmHg 94%
07:00 +26°C° 0.1 mm 1 mps 752 mmHg 94%
08:00 +27°C° 0 mm 1 mps 752 mmHg 90%
09:00 +28°C° 0 mm 1 mps 753 mmHg 86%
10:00 +29°C° 0 mm 2 mps 753 mmHg 82%
11:00 +30°C° 0.1 mm 2 mps 752 mmHg 78%
12:00 +31°C° 0.1 mm 2 mps 751 mmHg 74%
13:00 +32°C° 0.1 mm 2 mps 750 mmHg 70%
14:00 +32°C° 0.1 mm 2 mps 749 mmHg 72%
15:00 +31°C° 0.1 mm 2 mps 749 mmHg 74%
16:00 +31°C° 0.1 mm 2 mps 749 mmHg 75%
17:00 +30°C° 0.5 mm 2 mps 749 mmHg 79%
18:00 +29°C° 0.5 mm 2 mps 750 mmHg 83%
19:00 +27°C° 0.5 mm 1 mps 750 mmHg 88%
20:00 +27°C° 1.3 mm 2 mps 751 mmHg 89%
21:00 +27°C° 1.3 mm 2 mps 751 mmHg 91%
22:00 +26°C° 1.3 mm 2 mps 752 mmHg 92%
23:00 +26°C° 0.5 mm 2 mps 751 mmHg 93%

Tomorrow, 30 November, Monday

Time Temperature Precipitation Wind Pressure Humidity
00:00 +26°C° 0.5 mm 1 mps 750 mmHg 93%
01:00 +26°C° 0.5 mm 1 mps 750 mmHg 94%
02:00 +25°C° 0 mm 1 mps 750 mmHg 93%
03:00 +25°C° 0 mm 1 mps 750 mmHg 93%
04:00 +23°C° 0 mm 0 mps 750 mmHg 93%
05:00 +24°C° 0 mm 0 mps 750 mmHg 92%
06:00 +24°C° 0 mm 0 mps 751 mmHg 90%
07:00 +25°C° 0 mm 0 mps 752 mmHg 88%
08:00 +28°C° 0.4 mm 1 mps 752 mmHg 84%
09:00 +29°C° 0.4 mm 1 mps 752 mmHg 79%
10:00 +31°C° 0.4 mm 1 mps 752 mmHg 75%
11:00 +31°C° 1.1 mm 1 mps 751 mmHg 73%
12:00 +32°C° 1.1 mm 1 mps 750 mmHg 70%
13:00 +32°C° 1.1 mm 1 mps 749 mmHg 68%
14:00 +32°C° 0.9 mm 1 mps 748 mmHg 71%
15:00 +31°C° 0.9 mm 1 mps 748 mmHg 74%
16:00 +31°C° 0.9 mm 1 mps 748 mmHg 77%
17:00 +30°C° 0.5 mm 1 mps 748 mmHg 80%
18:00 +29°C° 0.5 mm 1 mps 749 mmHg 84%
19:00 +26°C° 0.5 mm 0 mps 749 mmHg 87%
20:00 +25°C° 0.1 mm 0 mps 750 mmHg 88%
21:00 +25°C° 0.1 mm 0 mps 750 mmHg 88%
22:00 +25°C° 0.1 mm 0 mps 750 mmHg 89%
23:00 +25°C° 0 mm 0 mps 750 mmHg 90%

Day after tomorrow, 1 December, Tuesday

Time Temperature Precipitation Wind Pressure Humidity
00:00 +24°C° 0 mm 0 mps 750 mmHg 91%
01:00 +24°C° 0 mm 0 mps 749 mmHg 91%
02:00 +24°C° 0.1 mm 0 mps 749 mmHg 92%
03:00 +24°C° 0.1 mm 0 mps 749 mmHg 92%
04:00 +26°C° 0.1 mm 1 mps 749 mmHg 93%
05:00 +26°C° 0 mm 1 mps 750 mmHg 91%
06:00 +27°C° 0 mm 1 mps 750 mmHg 89%
07:00 +27°C° 0 mm 1 mps 751 mmHg 88%
08:00 +29°C° 0 mm 1 mps 751 mmHg 82%
09:00 +30°C° 0 mm 1 mps 751 mmHg 76%
10:00 +32°C° 0 mm 1 mps 751 mmHg 71%
11:00 +32°C° 0.1 mm 1 mps 750 mmHg 69%
12:00 +34°C° 0.1 mm 2 mps 749 mmHg 66%
13:00 +34°C° 0.1 mm 2 mps 748 mmHg 64%
14:00 +34°C° 1.2 mm 2 mps 748 mmHg 69%
15:00 +32°C° 1.2 mm 2 mps 747 mmHg 73%
16:00 +32°C° 1.2 mm 2 mps 747 mmHg 78%
17:00 +30°C° 2 mm 2 mps 748 mmHg 81%
18:00 +29°C° 2 mm 2 mps 748 mmHg 84%
19:00 +28°C° 2 mm 2 mps 749 mmHg 88%
20:00 +27°C° 0.2 mm 2 mps 749 mmHg 89%
21:00 +27°C° 0.2 mm 2 mps 749 mmHg 91%
22:00 +27°C° 0.2 mm 1 mps 750 mmHg 92%
23:00 +27°C° 0.7 mm 1 mps 749 mmHg 93%

2 December, Wednesday

Time Temperature Precipitation Wind Pressure Humidity
00:00 +26°C° 0.7 mm 1 mps 749 mmHg 94%
01:00 +26°C° 0.7 mm 1 mps 749 mmHg 94%
02:00 +26°C° 0.8 mm 1 mps 749 mmHg 95%
03:00 +25°C° 0.8 mm 2 mps 749 mmHg 95%
04:00 +25°C° 0.8 mm 2 mps 749 mmHg 95%
05:00 +26°C° 0 mm 1 mps 750 mmHg 94%
06:00 +26°C° 0 mm 1 mps 750 mmHg 93%
07:00 +26°C° 0 mm 1 mps 751 mmHg 92%
08:00 +28°C° 0 mm 1 mps 751 mmHg 86%
09:00 +29°C° 0 mm 1 mps 751 mmHg 80%
10:00 +31°C° 0 mm 1 mps 751 mmHg 74%
11:00 +31°C° 0.6 mm 1 mps 750 mmHg 75%
12:00 +31°C° 0.6 mm 1 mps 750 mmHg 76%
13:00 +31°C° 0.6 mm 1 mps 749 mmHg 77%
14:00 +31°C° 2.1 mm 1 mps 749 mmHg 78%
15:00 +31°C° 2.1 mm 1 mps 748 mmHg 80%
16:00 +28°C° 2.1 mm 0 mps 748 mmHg 81%
17:00 +29°C° 0.6 mm 1 mps 749 mmHg 83%
18:00 +28°C° 0.6 mm 1 mps 749 mmHg 85%
19:00 +27°C° 0.6 mm 1 mps 750 mmHg 87%
20:00 +27°C° 0 mm 1 mps 750 mmHg 88%
21:00 +27°C° 0 mm 1 mps 750 mmHg 90%
22:00 +26°C° 0 mm 1 mps 751 mmHg 91%
23:00 +26°C° 0 mm 1 mps 750 mmHg 92%

3 December, Thursday

Time Temperature Precipitation Wind Pressure Humidity
00:00 +26°C° 0 mm 1 mps 750 mmHg 94%
01:00 +25°C° 0 mm 1 mps 750 mmHg 95%
02:00 +25°C° 0 mm 1 mps 750 mmHg 95%
03:00 +25°C° 0 mm 1 mps 750 mmHg 95%
04:00 +25°C° 0 mm 1 mps 749 mmHg 95%
05:00 +25°C° 0 mm 2 mps 750 mmHg 94%
06:00 +26°C° 0 mm 2 mps 751 mmHg 93%
07:00 +26°C° 0 mm 3 mps 751 mmHg 91%
08:00 +28°C° 0 mm 3 mps 751 mmHg 84%
09:00 +29°C° 0 mm 3 mps 751 mmHg 78%
10:00 +31°C° 0 mm 3 mps 751 mmHg 71%
11:00 +33°C° 0 mm 3 mps 750 mmHg 69%
12:00 +33°C° 0 mm 3 mps 750 mmHg 67%
13:00 +34°C° 0 mm 3 mps 749 mmHg 65%
14:00 +33°C° 0.6 mm 3 mps 748 mmHg 69%
15:00 +33°C° 0.6 mm 3 mps 748 mmHg 74%
16:00 +31°C° 0.6 mm 3 mps 748 mmHg 79%
17:00 +30°C° 0.2 mm 3 mps 748 mmHg 83%
18:00 +28°C° 0.2 mm 2 mps 749 mmHg 86%
19:00 +27°C° 0.2 mm 2 mps 749 mmHg 89%
20:00 +27°C° 0 mm 2 mps 750 mmHg 89%
21:00 +26°C° 0 mm 2 mps 750 mmHg 90%
22:00 +26°C° 0 mm 2 mps 750 mmHg 91%
23:00 +26°C° 0 mm 2 mps 750 mmHg 91%

4 December, Friday

Time Temperature Precipitation Wind Pressure Humidity
00:00 +26°C° 0 mm 2 mps 750 mmHg 92%
01:00 +25°C° 0 mm 2 mps 750 mmHg 93%
02:00 +25°C° 0 mm 2 mps 750 mmHg 93%
03:00 +25°C° 0 mm 3 mps 750 mmHg 93%
04:00 +25°C° 0 mm 3 mps 750 mmHg 93%
05:00 +25°C° 0 mm 3 mps 750 mmHg 92%
06:00 +26°C° 0 mm 3 mps 751 mmHg 91%
07:00 +26°C° 0 mm 4 mps 752 mmHg 90%
08:00 +28°C° 0 mm 3 mps 752 mmHg 82%
09:00 +30°C° 0 mm 3 mps 752 mmHg 75%
10:00 +33°C° 0 mm 3 mps 752 mmHg 67%
11:00 +32°C° 0.4 mm 2 mps 751 mmHg 68%
12:00 +32°C° 0.4 mm 2 mps 750 mmHg 69%
13:00 +32°C° 0.4 mm 2 mps 749 mmHg 70%
14:00 +32°C° 1 mm 2 mps 749 mmHg 73%
15:00 +31°C° 1 mm 2 mps 749 mmHg 76%
16:00 +31°C° 1 mm 2 mps 748 mmHg 79%
17:00 +29°C° 0.6 mm 1 mps 749 mmHg 82%
18:00 +28°C° 0.6 mm 1 mps 749 mmHg 85%
19:00 +27°C° 0.6 mm 1 mps 750 mmHg 88%
20:00 +27°C° 0 mm 1 mps 750 mmHg 89%
21:00 +26°C° 0 mm 1 mps 751 mmHg 90%
22:00 +26°C° 0 mm 1 mps 751 mmHg 91%
23:00 +26°C° 0 mm 1 mps 751 mmHg 92%
Show more